Home > Time Zones > World Clock > Weather > Peru > Ica > Past weeks

Flag Weather past 2 weeks in Ica, Ica, Peru

Now
61 °F

Passing clouds.


Feels Like: 61 °F
Forecast: 60 / 87 °F
Wind: 6 mph from South

Location: Pisco Airport

Current Time: Nov 24, 2014 at 4:35:23 AM

Latest Report: Nov 24, 2014 at 4:00 AM


Visibility: N/A

Pressure: 29.89 "Hg

Humidity: 88%

Dew point: 57 °F

Location of IcaLocation

Historic Weather in Ica — Graph

°F

Ica temperature yesterday

Maximum temperature yesterday: 70 °F (at 3:00 PM)
Minimum temperature yesterday: 57 °F (at 6:00 AM)
Average temperature yesterday: 65 °F

Past Weeks' High & Low Weather Summary

 TemperatureHumidityPressure
High75 °F (Nov 20, 2:00 PM)94% (Nov 13, 6:00 AM)30.18 "Hg (Nov 13, 6:00 AM)
Low57 °F (Nov 23, 6:00 AM)65% (Nov 10, 4:00 PM)29.86 "Hg (Nov 9, 4:00 PM)
Average67 °F82%29.94 "Hg
* Reported Nov 9 3:00 AM — Nov 24 3:00 AM, Ica, Weather by CustomWeather, © 2014

Note: Actual official high and low records may vary slightly from our data, if they occured in-between our weather recording intervals... More about our weather records

Advertising

Ica weather history for previous 24 hours

 ConditionsComfort  
Time TempWeatherWind HumidityBarometerVisibility
3:00 AM
Nov 24
61 °FPassing clouds.5 mph88%29.86 "HgN/A
2:00 AM61 °FPassing clouds.3 mph88%29.89 "HgN/A
1:00 AM61 °FPassing clouds.5 mph94%29.89 "HgN/A
12:00 AM63 °FPassing clouds.6 mph88%29.89 "HgN/A
11:00 PM
Nov 23
63 °FPassing clouds.2 mph88%29.92 "HgN/A
10:00 PM64 °FPassing clouds.2 mph88%29.92 "HgN/A
9:00 PM64 °FPassing clouds.12 mph88%29.89 "HgN/A
8:00 PM64 °FPassing clouds.12 mph88%29.89 "HgN/A
7:00 PM66 °FPassing clouds.16 mph83%29.86 "HgN/A
6:00 PM68 °FPassing clouds.16 mph78%29.86 "HgN/A
5:00 PM68 °FPassing clouds.7 mph78%29.86 "HgN/A
4:00 PM68 °FPassing clouds.12 mph78%29.86 "HgN/A
3:00 PM70 °FClear.13 mph78%29.86 "Hg5 mi
2:00 PM68 °FClear.13 mph78%29.89 "Hg5 mi
1:00 PM68 °FClear.12 mph78%29.92 "Hg5 mi
12:00 PM68 °FClear.10 mph78%29.92 "Hg5 mi
11:00 AM68 °FClear.10 mph78%29.92 "Hg4 mi
10:00 AM66 °FScattered clouds.8 mph83%29.92 "Hg5 mi
9:00 AM68 °FScattered clouds.8 mph78%29.95 "Hg5 mi
8:00 AM66 °FPassing clouds.3 mph83%29.95 "Hg5 mi
7:00 AM63 °FClear.5 mph88%29.92 "Hg3 mi
6:00 AM57 °FClear.5 mph88%29.89 "Hg2 mi
5:00 AM59 °FPassing clouds.3 mph82%29.89 "Hg3 mi
4:00 AM59 °FPassing clouds.3 mph88%29.89 "Hg5 mi
Weather by CustomWeather, © 2014

See weather overviewHow to use our weather pages